FW0579 Weather Reports


Display with metric or nautical units.
time (UTC)temp
F
wind
direction
speed
MPH
gust
MPH
rain 1hr
in
rain 24hr
in
rain mn
in
humidity
%
barometer
mb
20260904111513 63 360 4.0 10.0 0.00 0.00 0.00 82 1011.8
20260904110021 63 360 6.0 11.0 0.00 0.00 0.00 82 1011.7
20260904104511 63 360 7.0 12.0 0.00 0.00 0.00 81 1011.5
20260904103006 63 360 5.0 13.0 0.00 0.00 0.00 80 1011.4
20260904101504 63 360 7.0 12.0 0.00 0.00 0.00 80 1011.3
20260904100002 63 360 4.0 10.0 0.00 0.00 0.00 81 1011.3
20260904094503 63 360 4.0 8.0 0.00 0.00 0.00 82 1011.4
20260904093117 63 360 3.0 8.0 0.00 0.00 0.00 81 1011.3
20260904091600 64 360 2.0 6.0 0.00 0.00 0.00 81 1011.2
20260904090101 64 360 2.0 5.0 0.00 0.00 0.00 80 1011.3
20260904084600 64 360 1.0 3.0 0.00 0.00 0.00 80 1011.3
20260904083058 64 360 0.0 0.0 0.00 0.00 0.00 80 1011.4
20260904081558 64 360 0.0 0.0 0.00 0.00 0.00 81 1011.3
20260904074556 64 360 3.0 5.0 0.00 0.00 0.00 81 1011.4
20260904073155 64 360 2.0 4.0 0.00 0.00 0.00 81 1011.4
20260904071555 64 360 2.0 5.0 0.00 0.00 0.00 81 1011.4
20260904070056 64 360 2.0 4.0 0.00 0.00 0.00 81 1011.5
20260904064553 65 360 2.0 8.0 0.00 0.00 0.00 81 1011.5
20260904063051 65 360 4.0 10.0 0.00 0.00 0.00 81 1011.4
20260904061553 65 360 3.0 8.0 0.00 0.00 0.00 81 1011.3
20260904060049 65 360 1.0 4.0 0.00 0.00 0.00 80 1011.3
20260904054548 66 360 0.0 3.0 0.00 0.00 0.00 80 1011.2
20260904053047 66 360 1.0 4.0 0.00 0.00 0.00 80 1011.2
20260904051550 66 360 1.0 4.0 0.00 0.00 0.00 80 1011.4
20260904050045 66 360 0.0 0.0 0.00 0.00 0.00 80 1011.3
20260904044543 66 360 2.0 4.0 0.00 0.00 0.00 80 1011.6
20260904043042 66 360 0.0 3.0 0.00 0.00 0.00 79 1011.7
20260904041548 66 360 1.0 4.0 0.00 0.00 0.00 79 1011.6
20260904040039 67 360 2.0 10.0 0.00 0.00 0.00 78 1011.3
20260904034550 68 252 1.0 8.0 0.00 0.00 0.00 77 1011.2
20260904033139 68 269 1.0 5.0 0.00 0.00 0.00 76 1011.0
20260904031543 68 267 2.0 7.0 0.00 0.00 0.00 74 1010.8
20260904030037 69 288 5.0 11.0 0.00 0.00 0.00 74 1010.5
20260904024537 69 360 3.0 10.0 0.00 0.00 0.00 72 1010.7
20260904023038 70 360 2.0 9.0 0.00 0.00 0.00 71 1010.9
20260904021536 70 275 3.0 8.0 0.00 0.00 0.00 69 1010.8
20260904020036 71 360 1.0 7.0 0.00 0.00 0.00 68 1010.7
20260904014537 72 261 2.0 15.0 0.00 0.00 0.00 66 1010.6
20260904013037 73 245 4.0 13.0 0.00 0.00 0.00 65 1010.7
20260904011557 74 350 3.0 10.0 0.00 0.00 0.00 63 1010.7
20260904010036 75 242 5.0 13.0 0.00 0.00 0.00 61 1010.8
20260904004535 77 261 7.0 12.0 0.00 0.00 0.00 56 1010.5
20260904003034 78 302 3.0 11.0 0.00 0.00 0.00 55 1010.5
20260904001532 78 252 9.0 15.0 0.00 0.00 0.00 54 1010.6
20260904000040 79 255 3.0 13.0 0.00 0.00 0.00 54 1010.6
20260903234539 80 240 4.0 15.0 0.00 0.00 0.00 52 1010.6
20260903233029 80 292 1.0 13.0 0.00 0.00 0.00 53 1010.7
20260903231528 80 254 6.0 12.0 0.00 0.00 0.00 53 1010.8
20260903230038 80 265 8.0 17.0 0.00 0.00 0.00 52 1011.0
20260903224525 81 239 4.0 8.0 0.00 0.00 0.00 49 1011.3
20260903223024 80 355 2.0 10.0 0.00 0.00 0.00 52 1011.5
20260903221521 79 360 6.0 10.0 0.00 0.00 0.00 52 1011.8
20260903220019 80 234 3.0 6.0 0.00 0.00 0.00 51 1012.0
20260903214523 80 297 0.0 7.0 0.00 0.00 0.00 52 1012.1
20260903213029 79 304 1.0 5.0 0.00 0.00 0.00 54 1012.2
20260903211519 79 274 1.0 6.0 0.00 0.00 0.00 51 1012.1
20260903210013 79 259 3.0 6.0 0.00 0.00 0.00 52 1012.3
20260903204514 78 215 4.0 8.0 0.00 0.00 0.00 53 1012.5
20260903203024 78 248 4.0 9.0 0.00 0.00 0.00 52 1012.6
20260903201510 77 278 0.0 5.0 0.00 0.00 0.00 52 1012.8
20260903200010 77 224 4.0 9.0 0.00 0.00 0.00 52 1012.9
20260903194505 77 188 1.0 4.0 0.00 0.00 0.00 54 1013.1
20260903193002 76 340 1.0 4.0 0.00 0.00 0.00 56 1013.3
20260903191501 75 227 3.0 7.0 0.00 0.00 0.00 55 1013.5
20260903190059 75 219 1.0 5.0 0.00 0.00 0.00 61 1013.7
20260903184557 74 225 4.0 9.0 0.00 0.00 0.00 59 1013.7
20260903183055 74 272 6.0 9.0 0.00 0.00 0.00 60 1014.0
20260903181551 71 221 4.0 7.0 0.00 0.00 0.00 64 1014.1
20260903180101 71 266 1.0 10.0 0.00 0.00 0.00 64 1014.1
20260903174547 71 221 3.0 8.0 0.00 0.00 0.00 66 1014.2
20260903173052 70 248 2.0 6.0 0.00 0.00 0.00 66 1014.5
20260903171559 70 242 2.0 9.0 0.00 0.00 0.00 68 1014.4
20260903170042 68 254 0.0 0.0 0.00 0.00 0.00 73 1014.6
20260903164556 66 253 0.0 0.0 0.00 0.00 0.00 75 1014.6
20260903163035 66 267 0.0 0.0 0.00 0.00 0.00 75 1014.5
20260903161534 65 284 0.0 0.0 0.00 0.00 0.00 77 1014.5
20260903160035 64 46 0.0 0.0 0.00 0.00 0.00 81 1014.7
20260903154538 63 46 0.0 0.0 0.00 0.00 0.00 84 1014.6
20260903153031 62 360 0.0 0.0 0.00 0.00 0.00 86 1014.9
20260903151530 61 360 0.0 0.0 0.00 0.00 0.00 88 1014.9
20260903150028 59 40 0.0 0.0 0.00 0.00 0.00 88 1014.9
20260903144540 58 30 0.0 0.0 0.00 0.00 0.00 88 1014.9
20260903143033 57 296 0.0 0.0 0.00 0.00 0.00 88 1014.9
20260903141517 56 296 0.0 0.0 0.00 0.00 0.00 88 1014.9
20260903140020 56 296 0.0 0.0 0.00 0.00 0.00 88 1014.8
20260903134512 56 296 0.0 0.0 0.00 0.00 0.00 87 1014.6
20260903133010 56 295 0.0 2.0 0.00 0.00 0.00 87 1014.5
20260903131509 56 290 0.0 2.0 0.00 0.00 0.00 87 1014.6
20260903130007 56 258 0.0 3.0 0.00 0.00 0.00 86 1014.6
20260903124505 57 252 0.0 3.0 0.00 0.00 0.00 86 1014.6
20260903123004 57 251 0.0 1.0 0.00 0.00 0.00 86 1014.6
20260903121512 57 251 0.0 0.0 0.00 0.00 0.00 86 1014.8
20260903120000 58 251 0.0 0.0 0.00 0.00 0.00 86 1014.8
20260903114559 58 250 0.0 1.0 0.00 0.00 0.00 86 1015.0
20260903113136 58 250 0.0 1.0 0.00 0.00 0.00 85 1015.1